Flag for Norway

Past Weather in Fetsund, Norway — Yesterday and Last 2 Weeks

Now
56 °F

Overcast.


Feels Like: 53 °F
Forecast: 62 / 46 °F
Wind: 9 mph from Southwest

Location: Oslo-Blindern

Current Time: Jul 7, 2020 at 3:14:38 pm

Latest Report: Jul 7, 2020 at 2:00 pm


Visibility: 47 mi

Pressure: 29.60 "Hg

Humidity: 56%

Dew Point: 40 °F

Location of FetsundLocation

Past Weather in Fetsund — Graph

°F

Fetsund Temperature Yesterday

Maximum temperature yesterday: 63 °F (at 1:00 pm)
Minimum temperature yesterday: 51 °F (at 7:00 am)
Average temperature yesterday: 57 °F

High & Low Weather Summary for the Past Weeks

 TemperatureHumidityPressure
High87 °F (Jun 27, 3:00 pm)99% (Jun 23, 4:00 am)30.31 "Hg (Jun 23, 4:00 am)
Low47 °F (Jul 3, 4:00 am)31% (Jun 26, 4:00 pm)29.00 "Hg (Jul 5, 5:00 pm)
Average63 °F70%29.73 "Hg
* Reported Jun 22 1:00 pm — Jul 7 1:00 pm, Fetsund. Weather by CustomWeather, © 2020

Note: Actual official high and low records may vary slightly from our data, if they occured in-between our weather recording intervals... More about our weather records

Fetsund Weather History for the Previous 24 Hours

Scroll right to see more
 ConditionsComfort  
Time TempWeatherWind HumidityBarometerVisibility
1:00 pm
Tue, Jul 7
62 °FRefreshingly cool.5 mph47%29.59 "Hg25 mi
12:00 pm60 °FRefreshingly cool.3 mph45%29.60 "HgN/A
11:00 am59 °FPartly sunny.2 mph44%29.61 "Hg47 mi
10:00 am57 °FRefreshingly cool.2 mph49%29.61 "HgN/A
9:00 am56 °FRefreshingly cool.2 mph51%29.62 "HgN/A
8:00 am54 °FCool.No wind63%29.62 "HgN/A
7:00 am49 °FCool.1 mph80%29.62 "HgN/A
6:00 am49 °FCool.1 mph72%29.61 "HgN/A
5:00 am49 °FCool.2 mph69%29.62 "HgN/A
4:00 am52 °FCool.1 mph63%29.60 "HgN/A
3:00 am52 °FCool.2 mph63%29.59 "HgN/A
2:00 am53 °FCool.1 mph63%29.58 "HgN/A
1:00 am55 °FCool.3 mph57%29.56 "HgN/A
12:00 am55 °FRefreshingly cool.5 mph57%29.54 "Hg31 mi
11:00 pm
Mon, Jul 6
56 °FOvercast.5 mph58%29.50 "Hg47 mi
10:00 pm57 °FCool.5 mph64%29.47 "Hg31 mi
9:00 pm56 °FCool.2 mph73%29.44 "Hg31 mi
8:00 pm57 °FOvercast.3 mph68%29.41 "Hg47 mi
7:00 pm56 °FRain showers. Cloudy.5 mph74%29.38 "Hg31 mi
6:00 pm60 °FCool.3 mph60%29.32 "Hg31 mi
5:00 pm61 °FOvercast.5 mph62%29.29 "Hg47 mi
4:00 pm60 °FRain showers. Cloudy.5 mph69%29.26 "Hg22 mi
3:00 pm58 °FRain showers. Cloudy.2 mph77%29.23 "Hg25 mi
Weather by CustomWeather, © 2020

See weather overview